Regional Weather Roundup
Issued by NWS State College, PA

Home | Current Version | Previous Version | Text Only | Print | Product List | Glossary On
Versions: 1 2 3 4 5 6 7 8 9 10 11 12 13 14 15 16 17 18 19 20 21 22 23 24 25 26 27 28 29 30 31 32 33 34 35 36 37 38 39 40 41 42 43 44 45 46 47 48 49 50
000
ASUS41 KCTP 240503
RWRCTP

REGIONAL WEATHER ROUNDUP
NATIONAL WEATHER SERVICE STATE COLLEGE PA
1200 AM EST TUE JAN 24 2017

Note: "fair" indicates few or no clouds below 12,000 feet with no
significant weather and/or obstructions to visibility.

* = STATION THAT DOES NOT REPORT PRECIPITATION /E.G. RAIN...SNOW...ETC/
    THUNDER OR FOG.

PAZ002>004-007>009-013>016-020>023-029>032-240600-
WESTERN PENNSYLVANIA

CITY           SKY/WX    TMP DP  RH WIND       PRES   REMARKS
ERIE           LGT RAIN  37  34  89 NE12      29.66R FOG
MEADVILLE      LGT RAIN  40  38  93 SW3       29.61S
FRANKLIN*        N/A     36  32  87 E3        29.63R
NEW CASTLE     LGT RAIN  37  36  96 CALM      29.64F FOG
BEAVER COUNTY  NOT AVBL
BUTLER*        CLOUDY    34  32  93 N3        29.64S
PITTSBURGH INT CLOUDY    36  35  96 NE6       29.61S
PITTSBURGH     CLOUDY    35  32  88 N7        29.60S FOG
INDIANA*       CLOUDY    34  34 100 CALM      29.61S FOG
LATROBE        CLOUDY    34  34 100 N3        29.60F FOG
WASHINGTON CO* CLOUDY    36  34  93 N5        29.61S
$$

PAZ004>006-010>012-017>019-024>028-033>037-041-042-045-046-049>053-240600-
CENTRAL PENNSYLVANIA

CITY           SKY/WX    TMP DP  RH WIND       PRES   REMARKS
BRADFORD       FRZ RAIN  32  31  96 E7        29.58F
DUBOIS         LGT SNOW  33  30  88 NE7       29.56F FOG
CLEARFIELD     LGT SNOW  33  33 100 NE5       29.57F FOG
JOHNSTOWN      LGT SNOW  31  31 100 NE6       29.53R FOG
ALTOONA        LGT SNOW  33  33 100 N10       29.55S FOG
STATE COLLEGE  LGT SNOW  32  32  99 NE7       29.57S
WILLIAMSPORT   FLURRIES  34  32  92 W7        29.58F
SELINSGROVE    LGT RAIN  34  33  96 N9        29.57F
FT INDIANTOWN  CLOUDY    38  38  99 NE8       29.51F
CAPITAL CITY   LGT RAIN  39  33  79 NE7       29.53F
HARRISBURG     LGT RAIN  38  35  89 N6        29.52F
YORK           CLOUDY    36  36 100 N9        29.51S FOG
$$

PAZ038>040-043-044-047-048-054-055-060>062-067>071-240600-
EASTERN PENNSYLVANIA

CITY           SKY/WX    TMP DP  RH WIND       PRES   REMARKS
SCRANTON       RAIN      34  33  96 NE9       29.52F FOG
MOUNT POCONO   MIX PCPN  32  29  88 E17G33    29.46F
ALLENTOWN      LGT RAIN  36  31  82 NE17      29.48F
QUAKERTOWN*    CLOUDY    37  34  87 NE14G23   29.44F
READING        LGT RAIN  36  35  96 NE10      29.48F
LANCASTER      CLOUDY    37  36  96 N14       29.49F
COATESVILLE    CLOUDY    37  34  87 N13       29.45F
POTTSTOWN      LGT RAIN  37  34  89 NE13G21   29.47F
BLUE BELL      CLOUDY    36  34  93 NE6G18    29.41S
DOYLESTOWN     RAIN      37  35  92 NE17G32   29.42F
WILLOW GROVE   NOT AVBL
NORTH PHILA    LGT RAIN  39  38  96 NE28G36   29.41F
PHILADELPHIA   LGT RAIN  39  35  86 NE23      29.42R
$$




USA.gov is the U.S. government's official web portal to all federal, state and local government web resources and services.